Location: ?????
(37.7324°N, 23.9257°E)
Time: 22:23:59
(UTC+00:00)

Cosmos 2084 - Pass Details

Date: 29 November 2020
Orbit: 558 x 624 km, 62.8° (Epoch: 18 January)

Event Time Altitude Azimuth Distance (km) Brightness Sun altitude
Exits shadow 03:23:22 37° 209° (SSW) 975 4.4 -22.4°
Drops below altitude 10° 03:26:39 10° 172° (S) 1,985 6.4 -21.8°
Sets 03:29:00 0° 165° (SSE) 2,885 7.3 -21.3°
